User: anonymous   Login
Location: Milton
(43.5183°N, 79.8775°W)
Time: 17:06:02
(UTC+00:00)
Language:

deb r/b Ablestar - Orbit

View from above orbital plane
View from above orbital plane
View from above satellite
View from above satellite

Ground track
Ground track

The orbit data is extracted from the following two-line orbital elements,

1 00469U 61015FF  24148.91415272  .00001511  00000-0  58737-3 0  9993
2 00469  66.8352 319.6790 0057155  34.8650 325.6173 14.31633586245452
Epoch (UTC): 27 May 2024 21:56:22
Eccentricity: 0.0057155
inclination: 66.8352°
perigee height: 745 km
apogee height: 827 km
right ascension of ascending node: 319.6790°
argument of perigee: 34.8650°
revolutions per day: 14.31633586
mean anomaly at epoch: 325.6173°
orbit number at epoch: 24545

The dashed part of the orbit path shows where the satellite is in the earth's shadow,  

DLR